Total_Precipitation_Accumulation
0.87 0.89 0.90 0.86 0.82 0.79 0.75 0.71 0.66 0.59 0.51 0.44 0.37 0.34 0.33 0.31 0.31 0.35 0.40 0.44 0.46 0.47 0.48 0.52 0.57 0.61 0.69 0.72 0.72 0.76 0.82 0.84 0.87 0.82 0.74 0.66 0.61 0.57 0.56 0.53 0.49 0.46 0.43
0.66 0.66 0.69 0.64 0.57 0.55 0.53 0.47 0.43 0.41 0.37 0.32 0.28 0.26 0.27 0.28 0.27 0.28 0.30 0.36 0.42 0.41 0.39 0.41 0.43 0.46 0.52 0.54 0.57 0.61 0.67 0.73 0.75 0.79 0.75 0.68 0.63 0.58 0.55 0.55 0.43 0.36 0.36
0.54 0.51 0.53 0.52 0.49 0.45 0.40 0.35 0.31 0.32 0.33 0.30 0.27 0.27 0.24 0.23 0.23 0.23 0.24 0.28 0.35 0.38 0.36 0.36 0.37 0.38 0.39 0.38 0.43 0.49 0.56 0.64 0.73 0.75 0.71 0.64 0.58 0.52 0.52 0.46 0.41 0.46 0.35
0.47 0.47 0.45 0.42 0.40 0.39 0.35 0.33 0.31 0.27 0.25 0.23 0.22 0.22 0.21 0.18 0.18 0.19 0.20 0.24 0.29 0.32 0.29 0.28 0.28 0.28 0.30 0.33 0.36 0.43 0.52 0.65 0.71 0.70 0.63 0.55 0.52 0.48 0.53 0.51 0.47 0.47 0.39
0.46 0.49 0.47 0.40 0.35 0.33 0.32 0.30 0.29 0.26 0.22 0.18 0.16 0.16 0.13 0.12 0.11 0.11 0.15 0.20 0.25 0.26 0.24 0.23 0.21 0.20 0.22 0.26 0.30 0.37 0.48 0.62 0.66 0.65 0.60 0.55 0.51 0.52 0.51 0.48 0.49 0.45 0.38
0.52 0.55 0.52 0.46 0.39 0.35 0.29 0.25 0.24 0.21 0.18 0.15 0.14 0.15 0.13 0.09 0.09 0.09 0.11 0.15 0.20 0.24 0.24 0.22 0.19 0.17 0.17 0.21 0.27 0.34 0.43 0.51 0.58 0.62 0.60 0.59 0.54 0.53 0.54 0.53 0.56 0.54 0.50
0.51 0.48 0.47 0.42 0.36 0.32 0.25 0.23 0.23 0.24 0.22 0.20 0.20 0.20 0.20 0.13 0.07 0.05 0.07 0.14 0.19 0.21 0.22 0.23 0.20 0.17 0.22 0.26 0.26 0.26 0.29 0.30 0.40 0.56 0.64 0.62 0.62 0.64 0.70 0.68 0.64 0.63 0.58
0.42 0.38 0.33 0.30 0.29 0.26 0.24 0.23 0.25 0.26 0.25 0.25 0.26 0.26 0.25 0.14 0.07 0.05 0.07 0.15 0.20 0.18 0.18 0.21 0.27 0.27 0.23 0.23 0.23 0.26 0.31 0.35 0.38 0.46 0.61 0.63 0.59 0.62 0.68 0.71 0.69 0.66 0.62
0.38 0.35 0.30 0.25 0.25 0.26 0.26 0.26 0.28 0.28 0.27 0.27 0.29 0.31 0.28 0.18 0.09 0.07 0.10 0.18 0.20 0.18 0.15 0.15 0.16 0.19 0.17 0.20 0.26 0.37 0.41 0.45 0.36 0.45 0.55 0.61 0.62 0.64 0.64 0.67 0.76 0.82 0.77
0.34 0.31 0.25 0.23 0.24 0.24 0.26 0.28 0.27 0.28 0.26 0.23 0.27 0.34 0.30 0.20 0.10 0.09 0.13 0.18 0.22 0.23 0.23 0.22 0.17 0.14 0.16 0.18 0.25 0.36 0.45 0.46 0.52 0.71 0.84 0.84 0.79 0.75 0.69 0.73 0.83 0.85 0.85
0.28 0.28 0.27 0.24 0.22 0.21 0.25 0.29 0.28 0.26 0.28 0.26 0.27 0.29 0.27 0.15 0.10 0.10 0.14 0.17 0.20 0.24 0.28 0.30 0.27 0.19 0.18 0.18 0.21 0.30 0.40 0.41 0.59 0.93 0.98 0.87 0.77 0.73 0.68 0.66 0.71 0.78 0.86
0.32 0.36 0.34 0.29 0.19 0.18 0.26 0.30 0.27 0.26 0.29 0.30 0.30 0.30 0.25 0.16 0.10 0.08 0.11 0.12 0.14 0.22 0.31 0.30 0.27 0.23 0.20 0.20 0.24 0.33 0.41 0.53 0.74 0.99 0.96 0.82 0.68 0.62 0.57 0.52 0.56 0.63 0.73
0.35 0.37 0.33 0.25 0.21 0.20 0.24 0.26 0.24 0.24 0.23 0.21 0.22 0.24 0.20 0.16 0.12 0.06 0.07 0.09 0.12 0.19 0.27 0.29 0.28 0.25 0.27 0.39 0.42 0.47 0.58 0.73 0.85 0.90 0.84 0.70 0.59 0.54 0.50 0.48 0.47 0.54 0.60
0.44 0.38 0.30 0.26 0.22 0.19 0.18 0.16 0.16 0.17 0.16 0.16 0.16 0.17 0.16 0.15 0.09 0.06 0.07 0.10 0.12 0.17 0.25 0.35 0.43 0.46 0.51 0.62 0.69 0.75 0.76 0.77 0.75 0.74 0.67 0.58 0.52 0.50 0.47 0.42 0.43 0.46 0.55
0.42 0.34 0.29 0.24 0.19 0.17 0.14 0.10 0.10 0.09 0.07 0.09 0.10 0.10 0.12 0.12 0.06 0.07 0.09 0.09 0.12 0.17 0.21 0.35 0.53 0.62 0.68 0.71 0.73 0.73 0.71 0.65 0.62 0.58 0.53 0.49 0.49 0.48 0.45 0.38 0.39 0.41 0.50
0.30 0.26 0.21 0.16 0.14 0.12 0.12 0.10 0.04 0.03 0.03 0.04 0.04 0.05 0.05 0.06 0.05 0.06 0.08 0.10 0.12 0.16 0.22 0.39 0.51 0.57 0.63 0.64 0.64 0.61 0.56 0.52 0.48 0.46 0.44 0.40 0.38 0.39 0.41 0.38 0.36 0.40 0.47
0.19 0.16 0.12 0.10 0.09 0.08 0.10 0.16 0.19 0.10 0.03 0.02 0.02 0.03 0.04 0.05 0.05 0.05 0.06 0.08 0.11 0.17 0.26 0.40 0.49 0.53 0.58 0.60 0.55 0.51 0.48 0.44 0.38 0.34 0.34 0.33 0.28 0.30 0.34 0.36 0.35 0.36 0.37
0.11 0.07 0.08 0.08 0.06 0.05 0.06 0.09 0.15 0.21 0.20 0.13 0.05 0.03 0.04 0.05 0.06 0.05 0.06 0.09 0.15 0.22 0.33 0.43 0.48 0.50 0.53 0.53 0.48 0.45 0.42 0.36 0.30 0.27 0.27 0.29 0.28 0.27 0.29 0.31 0.30 0.28 0.30
0.07 0.06 0.06 0.04 0.03 0.03 0.03 0.04 0.06 0.11 0.17 0.19 0.15 0.08 0.06 0.09 0.10 0.11 0.12 0.15 0.20 0.24 0.30 0.35 0.40 0.43 0.45 0.44 0.41 0.36 0.33 0.30 0.26 0.24 0.24 0.25 0.26 0.25 0.24 0.22 0.21 0.16 0.22
0.05 0.03 0.03 0.03 0.03 0.02 0.02 0.03 0.04 0.08 0.11 0.13 0.13 0.09 0.10 0.17 0.21 0.20 0.17 0.15 0.15 0.18 0.23 0.28 0.32 0.33 0.33 0.33 0.30 0.26 0.25 0.24 0.22 0.22 0.22 0.23 0.23 0.21 0.18 0.17 0.17 0.18 0.20
0.03 0.02 0.02 0.02 0.02 0.02 0.01 0.02 0.03 0.06 0.08 0.10 0.08 0.06 0.11 0.18 0.23 0.23 0.21 0.18 0.17 0.18 0.20 0.22 0.24 0.25 0.22 0.21 0.21 0.20 0.18 0.18 0.20 0.22 0.23 0.21 0.18 0.15 0.12 0.10 0.10 0.10 0.10
0.02 0.02 0.01 0.01 0.01 0.01 0.01 0.01 0.01 0.03 0.06 0.07 0.07 0.06 0.11 0.15 0.20 0.21 0.20 0.19 0.18 0.20 0.20 0.21 0.20 0.19 0.19 0.18 0.18 0.17 0.15 0.15 0.16 0.20 0.22 0.19 0.15 0.11 0.07 0.07 0.06 0.05 0.05
0.01 0.01 0.01 0.00 0.00 0.00 0.00 0.01 0.01 0.02 0.04 0.05 0.05 0.06 0.09 0.13 0.14 0.18 0.20 0.18 0.16 0.15 0.14 0.15 0.16 0.17 0.16 0.14 0.14 0.12 0.11 0.12 0.13 0.17 0.23 0.20 0.14 0.08 0.06 0.06 0.05 0.04 0.03
0.00 0.00 0.00 0.00 0.00 0.00 0.00 0.01 0.01 0.01 0.02 0.03 0.04 0.05 0.07 0.09 0.11 0.15 0.18 0.18 0.17 0.16 0.14 0.14 0.15 0.15 0.14 0.14 0.12 0.09 0.06 0.07 0.08 0.12 0.17 0.16 0.10 0.07 0.07 0.07 0.06 0.04 0.04
0.00 0.00 0.00 0.00 0.00 0.00 0.00 0.01 0.01 0.01 0.01 0.01 0.02 0.04 0.05 0.05 0.06 0.08 0.12 0.15 0.16 0.18 0.17 0.13 0.11 0.11 0.10 0.08 0.07 0.06 0.07 0.07 0.06 0.08 0.13 0.14 0.09 0.06 0.06 0.06 0.05 0.05 0.04
0.01 0.01 0.01 0.01 0.01 0.01 0.01 0.01 0.01 0.01 0.01 0.01 0.01 0.02 0.02 0.02 0.03 0.04 0.05 0.08 0.12 0.14 0.14 0.13 0.11 0.08 0.05 0.03 0.03 0.04 0.05 0.04 0.03 0.04 0.08 0.12 0.09 0.07 0.07 0.06 0.04 0.05 0.06